Regional Weather Roundup
Issued by NWS Cleveland, OH

Home | Current Version | Previous Version | Text Only | Print | Product List | Glossary Off
Versions: 1 2 3 4 5 6 7 8 9 10 11 12 13 14 15 16 17 18 19 20 21 22 23 24 25 26 27 28 29 30 31 32 33 34 35 36 37 38 39 40 41 42 43 44 45 46 47 48 49 50

000
ASUS41 KCLE 180010
RWRCLE
OHIO REGIONAL WEATHER ROUNDUP
NATIONAL WEATHER SERVICE WILMINGTON, OH
700 PM EST FRI NOV 17 2017

NOTE: "FAIR" INDICATES FEW OR NO CLOUDS BELOW 12,000 FEET WITH NO
SIGNIFICANT WEATHER AND/OR OBSTRUCTIONS TO VISIBILITY.

OHZ001>008-015>018-024>027-034-035-043-044-180100-
   NORTHWEST OHIO

CITY           SKY/WX    TMP DP  RH WIND       PRES   REMARKS
DEFIANCE       CLOUDY    45  33  63 S10       29.90F
FINDLAY        MOCLDY    44  32  62 S13       29.93F
TOLEDO EXPRESS FAIR      44  35  70 VRB5      29.92F
TOLEDO EXEC    FAIR      42  34  73 S7        29.94F
LIMA           MOCLDY    42  34  73 S15       29.93F
$$

OHZ009>014-019>023-028>033-038-089-180100-
   NORTHEAST OHIO

CITY           SKY/WX    TMP DP  RH WIND       PRES   REMARKS
CLE-HOPKINS    MOCLDY    43  30  60 SE15      30.00F
CLE-LAKEFRONT  FAIR      43  29  57 SE13      29.97F
CUY CO. ARPT   CLOUDY    43  30  61 S14       30.00F
LORAIN-ELYRIA  FAIR      41  27  57 S15       29.97F
ASHTABULA      FAIR      39  28  64 S9        30.02F
AKRON-CANTON   MOCLDY    41  28  60 S10       30.01F
WOOSTER        FAIR      38  31  76 SE7       30.00F
MANSFIELD      FAIR      41  30  65 SE15      29.96F
YOUNGSTOWN     MOCLDY    38  27  64 SE7       30.02S
$$

OHZ042-051>053-060>062-070>072-077>081-180100-
  SOUTHWEST OHIO

CITY           SKY/WX    TMP DP  RH WIND       PRES   REMARKS
CINC-COVINGTON CLOUDY    43  36  76 S7        29.96F
CINC-LUNKEN    FAIR      44  34  67 CALM      29.98F
HAMILTON       FAIR      47  34  60 CALM      29.97F
DAYTON         MOCLDY    43  34  70 SE8       29.96F
WRIGHT-PAT AFB FAIR      44  30  57 SE8       29.96F
DAYTON GENERAL FAIR      44  31  60 S7        29.95F
WILMINGTON     FAIR      41  33  73 SE7       29.97F
$$

OHZ036-037-039>041-045>050-054>059-063>069-073>076-082>088-180100-
  CENTRAL AND SOUTHEAST OHIO

CITY           SKY/WX    TMP DP  RH WIND       PRES   REMARKS
COLUMBUS       CLOUDY    45  32  60 SE7       29.99F
OSU AIRPORT    FAIR      45  32  60 SE8       29.98F
BOLTON FIELD   CLEAR     43  32  65 S8        29.99F
RICKENBACK AFB FAIR      41  32  70 CALM      29.99F
NEWARK         FAIR      42  29  59 SE3       29.99F
MARION         FAIR      42  31  64 S9        29.97F
LANCASTER      FAIR      43  31  62 SE9       29.99F
ZANESVILLE     FAIR      41  28  60 SE5       30.02F
NEW PHILLY     FAIR      41  29  62 SE3       30.04F
$$




USA.gov is the U.S. government's official web portal to all federal, state and local government web resources and services.